Regional Weather Roundup
Issued by NWS

Home | Current Version | Previous Version | Graphics & Text | Print | Product List | Glossary On
Versions: 1 2 3 4 5 6 7 8 9 10 11 12 13 14 15 16 17 18 19 20 21 22 23 24 25 26 27
000
ASUS45 KTFX 181710
RWRMT
MONTANA REGIONAL WEATHER ROUNDUP
NATIONAL WEATHER SERVICE GREAT FALLS MT
1000 AM MST WED JAN 18 2017

NOTE: "FAIR" INDICATES FEW OR NO CLOUDS BELOW 12000 FEET WITH NO
SIGNIFICANT WEATHER AND/OR OBSTRUCTIONS TO VISIBILITY.

MTZ001>007-043-181800-
WEST OF THE DIVIDE

CITY           SKY/WX    TMP DP  RH WIND       PRES   REMARKS
KALISPELL      LGT RAIN  25  21  85 CALM      29.71F FOG
MISSOULA       CLOUDY    23  18  81 CALM      29.79S
BUTTE          CLOUDY    26  17  68 S3        29.78F
MULLAN PASS    SNOW      30  29  96 VRB6      29.65S VSB 1/4 WCI  24
ANACONDA         N/A     39  19  45 S17G25    29.72F WCI  30
DEER LODGE       N/A     36  23  60 S10G18    29.73F WCI  28
EUREKA           N/A     28  27  93 CALM      29.67S
HAMILTON         N/A     41  23  48 S13       29.75S
PLAINS           N/A     24  17  74 CALM      29.75F
RONAN            N/A     22  19  88 MISG      29.76S
THOMPSON FALLS   N/A     26  22  85 E14       29.76F WCI  14
$$

MTZ008-052>055-181800-
SOUTHWEST MONTANA

CITY           SKY/WX    TMP DP  RH WIND       PRES   REMARKS
BOZEMAN        CLOUDY    14   9  80 S5        29.79F
DILLON         CLOUDY    32  15  49 S16       29.82F WCI  21
W YELLOWSTONE  CLOUDY     0  -4  85 CALM      30.04F
ENNIS          SUNNY     28  16  59 S31G40    29.88F WCI  12
TWIN BRIDGES     N/A     30  13  49 SE17      29.85S WCI  18
$$

MTZ009-010-012-014-046-048-049-054-181800-
EAST SLOPES AND CENTRAL MONTANA

CITY           SKY/WX    TMP DP  RH WIND       PRES   REMARKS
CUT BANK       PTSUNNY   45  32  60 W17G29    29.50F
GREAT FALLS    CLOUDY    43  24  47 S24       29.57F
MALMSTROM AFB  CLOUDY    40  28  60 SW28      29.58R
HELENA         CLOUDY    26  16  65 W3        29.73F
AUGUSTA          N/A     41  31  66 SW24      29.56F
BOWMANS CRNR     N/A     35  23  60 S26G33    29.57F WCI  23
CHOTEAU          N/A     45  32  61 SW17G25   29.56S
CONRAD           N/A     39  33  79 SW10      29.59S
POWER            N/A     39  25  57 SW24      29.55F WCI  28
RAYNESFORD       N/A     50  20  30 N3        29.60R
ULM              N/A     43  25  49 MISG      29.61F
$$

MTZ011-013-016-021-045-047-050-051-181800-
NORTH CENTRAL MONTANA

CITY           SKY/WX    TMP DP  RH WIND       PRES   REMARKS
HAVRE          CLOUDY    39  30  70 SW17      29.53R WCI  30
LEWISTOWN      CLOUDY    46  25  43 SW30      29.60F
N BAR RANCH      N/A     54  19  26 SW21G26   29.62F
CHINOOK          N/A     43  30  61 W8        29.52R
DENTON           N/A     42  27  56 SW14G28   29.55S
FORT BENTON      N/A     46  27  46 MISG      29.56R
GEYSER         PTSUNNY   49  22  35 W10       29.59F
GRASS RANGE      N/A     53  22  29 N8        29.56F
JUDITH GAP       N/A     46  19  35 CALM      29.69F
ROY              N/A     57  26  30 MISG      29.56S
STANFORD         N/A     44  24  44 SE15G22   29.60F
WINIFRED         N/A     47  26  42 SW26      29.57S
$$

MTZ017>020-022>027-061-062-181800-
NORTHEAST MONTANA

CITY           SKY/WX    TMP DP  RH WIND       PRES   REMARKS
GLASGOW        CLOUDY    32  24  72 SE14      29.55F WCI  22
JORDAN           N/A     43  26  51 W9        29.59F
SIDNEY         CLOUDY    31  23  72 S16       29.66F WCI  20
WOLF POINT     CLOUDY    26  20  77 CALM      29.60F
PLENTYWOOD       N/A     30  23  74 SE9       29.58F WCI  22
POPLAR           N/A     39  23  52 SW8       29.60F
SCOBEY           N/A     34  21  59 SE12      29.57F WCI  25
$$

MTZ028>42-056>058-181800-
SOUTHCENTRAL AND SOUTHEAST MONTANA

CITY           SKY/WX    TMP DP  RH WIND       PRES   REMARKS
BAKER          CLOUDY    26  19  74 VRB3      29.72S
BILLINGS       CLOUDY    42  19  39 SW23G31   29.70F
LIVINGSTON     CLOUDY    43  12  28 SW36G45   29.73F
MILES CITY     CLOUDY    24  16  71 S10       29.71S WCI  14
BIG TIMBER     SUNNY     45  14  29 W20       29.74F
FORSYTH          N/A     32  18  55 SE5       29.68F
HARLOWTON        N/A     41  20  42 SW8       29.69F
LAUREL           N/A     38  19  46 SW18      29.71F WCI  28
$$

REGIONAL REPORTS...DAKOTAS

CITY           SKY/WX    TMP DP  RH WIND       PRES   REMARKS
WILLISTON      CLOUDY    35  23  61 SW14      29.64S WCI  26
MINOT          CLOUDY    38  28  67 S12       29.64F WCI  30
DICKINSON      CLOUDY    36  23  59 S17       29.68F WCI  26
BEACH            N/A     36  25  64 S15       29.71S WCI  26
CROSBY           N/A     32  25  74 S17G28    29.60S WCI  21
TIOGA            N/A     34  27  75 SW14      29.64F WCI  24
WATFORD CITY     N/A     30  23  74 CALM      29.66F
BISMARCK       CLOUDY    23  17  78 CALM      29.74F
GRAND FORKS    CLOUDY    27  20  75 S10       29.71F WCI  17
FARGO          CLOUDY    28  21  75 S10       29.77S WCI  19
BUFFALO SD       N/A     34  20  56 CALM      29.68S
RAPID CITY     CLOUDY    33  23  66 N5        29.74F
$$

REGIONAL REPORTS...WYOMING/IDAHO/WASHINGTON

CITY           SKY/WX    TMP DP  RH WIND       PRES   REMARKS
GILLETTE       CLOUDY    42  21  43 VRB5      29.77F
SHERIDAN       CLOUDY    22  14  71 VRB6      29.72F WCI  14
BUFFALO WY     CLOUDY    41  20  43 W9        29.75F
CODY           CLOUDY    41  17  38 SE9       29.83F
YELLOWSTONE LA   N/A     -2  -2 100 CALM      30.03F
IDAHO FALLS    CLOUDY     7   3  84 N9        30.09S WCI  -7
SALMON         CLOUDY     1  -2  85 CALM      30.03S
BOISE          LGT SNOW  19  15  84 NE5       30.02R FOG
SPOKANE        LGT RAIN  36  36 100 SE13G21   29.63S FOG     WCI  27
$$

REGIONAL REPORTS...ALBERTA

CITY           SKY/WX    TMP DP  RH WIND       PRES   REMARKS
EDMONTON       MOCLDY    37  25  60 W6        29.18R
CALGARY        PTCLDY    36  25  64 CALM      29.26F
LETHBRIDGE     PTSUNNY   37  30  75 S9        29.44S WCI  31
MEDICINE HAT   CLOUDY    43  34  70 SW23G30   29.39S
WATERTON GATE    N/A     41  30  65 SW37G52     N/A
MILK RIVER       N/A     41  34  75 SW21G26     N/A
$$

REGIONAL REPORTS...SASKATCHEWAN

CITY           SKY/WX    TMP DP  RH WIND       PRES   REMARKS
SWIFT CURRENT  SUNNY     41  32  70 S22       29.37S
REGINA         MOSUNNY   32  27  80 SE14      29.48F WCI  22
SASKATOON      PTSUNNY   37  30  75 S20       29.33S WCI  27
CYPRESS HILLS    N/A     41  28  60 SW24G37     N/A
VAL MARIE        N/A     32  27  80 S8          N/A  WCI  25
ROCKGLEN         N/A     36  28  75 S10         N/A  WCI  28
ASSINIBOIA       N/A     37  32  81 S9          N/A  WCI  31
$$




USA.gov is the U.S. government's official web portal to all federal, state and local government web resources and services.